Time,TemperatureF,DewpointF,PressureIn,WindDirection,WindDirectionDegrees,WindSpeedMPH,WindSpeedGustMPH,Humidity,HourlyPrecipIn,Conditions,Clouds,dailyrainin,SoftwareType,DateUTC
2013-02-13 00:02:00,26.0,22.0,-100.00,WSW,250,9.0,9.0,84,0.00,,,-99.99,,2013-02-13 06:02:00,
2013-02-13 00:11:00,26.0,22.0,-100.00,WSW,250,9.0,9.0,84,0.00,,,-99.99,,2013-02-13 06:11:00,
2013-02-13 00:21:00,26.0,22.0,-100.00,WSW,245,9.0,11.0,84,0.00,,,-99.99,,2013-02-13 06:21:00,
2013-02-13 00:32:00,28.0,24.0,-100.00,WSW,245,13.0,15.0,84,0.00,,,-99.99,,2013-02-13 06:32:00,
2013-02-13 00:42:00,28.0,24.0,-100.00,WSW,245,12.0,17.0,83,0.00,,,-99.99,,2013-02-13 06:42:00,
2013-02-13 00:52:00,28.0,24.0,-100.00,WSW,245,12.0,17.0,83,0.00,,,-99.99,,2013-02-13 06:52:00,
2013-02-13 01:02:00,28.0,24.0,-100.00,WSW,245,12.0,14.0,83,0.00,,,-99.99,,2013-02-13 07:02:00,
2013-02-13 01:11:00,28.0,24.0,-100.00,WSW,245,12.0,14.0,83,0.00,,,-99.99,,2013-02-13 07:11:00,
2013-02-13 01:22:00,28.0,24.0,-100.00,WSW,250,11.0,13.0,83,0.00,,,-99.99,,2013-02-13 07:22:00,
2013-02-13 01:32:00,28.0,24.0,-100.00,WSW,240,11.0,13.0,83,0.00,,,-99.99,,2013-02-13 07:32:00,
2013-02-13 01:42:00,28.0,24.0,-100.00,WSW,240,12.0,14.0,83,0.00,,,-99.99,,2013-02-13 07:42:00,
2013-02-13 01:52:00,28.0,24.0,-100.00,WSW,240,12.0,14.0,83,0.00,,,-99.99,,2013-02-13 07:52:00,
2013-02-13 02:01:00,28.0,24.0,-100.00,SW,235,11.0,14.0,83,0.00,,,-99.99,,2013-02-13 08:01:00,
2013-02-13 02:11:00,28.0,24.0,-100.00,SW,235,11.0,14.0,83,0.00,,,-99.99,,2013-02-13 08:11:00,
2013-02-13 02:21:00,28.0,24.0,-100.00,WSW,240,10.0,12.0,83,0.00,,,-99.99,,2013-02-13 08:21:00,
2013-02-13 02:32:00,28.0,24.0,-100.00,WSW,245,7.0,11.0,83,0.00,,,-99.99,,2013-02-13 08:32:00,
2013-02-13 02:43:00,28.0,24.0,-100.00,WSW,250,9.0,11.0,83,0.00,,,-99.99,,2013-02-13 08:43:00,
2013-02-13 02:52:00,28.0,24.0,-100.00,WSW,250,9.0,11.0,83,0.00,,,-99.99,,2013-02-13 08:52:00,
2013-02-13 03:01:00,28.0,24.0,-100.00,WSW,240,11.0,12.0,83,0.00,,,-99.99,,2013-02-13 09:01:00,
2013-02-13 03:11:00,28.0,24.0,-100.00,WSW,240,11.0,12.0,83,0.00,,,-99.99,,2013-02-13 09:11:00,
2013-02-13 03:21:00,28.0,24.0,-100.00,WSW,245,8.0,11.0,83,0.00,,,-99.99,,2013-02-13 09:21:00,
2013-02-13 03:31:00,29.0,24.0,-100.00,SW,225,7.0,11.0,83,0.00,,,-99.99,,2013-02-13 09:31:00,
2013-02-13 03:42:00,29.0,24.0,-100.00,SW,225,9.0,9.0,83,0.00,,,-99.99,,2013-02-13 09:42:00,
2013-02-13 03:52:00,29.0,24.0,-100.00,SW,225,9.0,9.0,83,0.00,,,-99.99,,2013-02-13 09:52:00,
2013-02-13 04:01:00,29.0,24.0,-100.00,SW,225,11.0,13.0,81,0.00,,,-99.99,,2013-02-13 10:01:00,
2013-02-13 04:11:00,29.0,24.0,-100.00,SW,225,11.0,13.0,81,0.00,,,-99.99,,2013-02-13 10:11:00,
2013-02-13 04:21:00,29.0,24.0,-100.00,SW,230,7.0,12.0,80,0.00,,,-99.99,,2013-02-13 10:21:00,
2013-02-13 04:32:00,30.0,24.0,-100.00,SW,235,10.0,12.0,80,0.00,,,-99.99,,2013-02-13 10:32:00,
2013-02-13 04:42:00,30.0,24.0,-100.00,SW,230,7.0,10.0,79,0.00,,,-99.99,,2013-02-13 10:42:00,
2013-02-13 04:52:00,30.0,24.0,-100.00,SW,230,7.0,10.0,79,0.00,,,-99.99,,2013-02-13 10:52:00,
2013-02-13 05:01:00,30.0,24.0,-100.00,West,265,4.0,6.0,79,0.00,,,-99.99,,2013-02-13 11:01:00,
2013-02-13 05:11:00,30.0,24.0,-100.00,West,265,4.0,6.0,79,0.00,,,-99.99,,2013-02-13 11:11:00,
2013-02-13 05:22:00,30.0,24.0,-100.00,WSW,245,4.0,6.0,80,13.80,,,-99.99,,2013-02-13 11:22:00,
2013-02-13 05:32:00,30.0,25.0,-100.00,SW,225,5.0,6.0,83,13.61,,,-99.99,,2013-02-13 11:32:00,
2013-02-13 05:42:00,29.0,26.0,-100.00,SSW,200,4.0,6.0,85,14.70,,,-99.99,,2013-02-13 11:42:00,
2013-02-13 05:52:00,29.0,26.0,-100.00,SSW,200,4.0,6.0,85,14.70,,,-99.99,,2013-02-13 11:52:00,
2013-02-13 06:02:00,29.0,26.0,-100.00,SW,215,6.0,7.0,89,0.00,,,-99.99,,2013-02-13 12:02:00,
2013-02-13 06:11:00,29.0,26.0,-100.00,SW,215,6.0,7.0,89,0.00,,,-99.99,,2013-02-13 12:11:00,
2013-02-13 06:22:00,29.0,26.0,-100.00,SW,215,6.0,8.0,90,0.00,,,-99.99,,2013-02-13 12:22:00,
2013-02-13 06:32:00,29.0,27.0,-100.00,SW,225,6.0,7.0,90,0.00,,,-99.99,,2013-02-13 12:32:00,
2013-02-13 06:42:00,29.0,27.0,-100.00,SW,235,9.0,11.0,90,0.00,,,-99.99,,2013-02-13 12:42:00,
2013-02-13 06:52:00,29.0,27.0,-100.00,SW,235,9.0,11.0,90,0.00,,,-99.99,,2013-02-13 12:52:00,
2013-02-13 07:02:00,30.0,27.0,-100.00,WSW,250,12.0,14.0,89,11.81,,,-99.99,,2013-02-13 13:02:00,
2013-02-13 07:11:00,30.0,27.0,-100.00,WSW,250,12.0,14.0,89,11.81,,,-99.99,,2013-02-13 13:11:00,
2013-02-13 07:21:00,29.0,26.0,-100.00,WSW,245,11.0,14.0,87,10.60,,,-99.99,,2013-02-13 13:21:00,
2013-02-13 07:32:00,29.0,26.0,-100.00,WSW,255,11.0,14.0,87,0.00,,,-99.99,,2013-02-13 13:32:00,
2013-02-13 07:42:00,29.0,26.0,-100.00,West,260,11.0,12.0,87,0.00,,,-99.99,,2013-02-13 13:42:00,
2013-02-13 07:52:00,29.0,26.0,-100.00,West,260,11.0,12.0,87,0.00,,,-99.99,,2013-02-13 13:52:00,
2013-02-13 08:01:00,29.0,27.0,-100.00,West,270,13.0,16.0,89,1.15,,,-99.99,,2013-02-13 14:01:00,
2013-02-13 08:11:00,29.0,27.0,-100.00,West,270,13.0,16.0,89,1.15,,,-99.99,,2013-02-13 14:11:00,
2013-02-13 08:21:00,29.0,27.0,-100.00,West,270,12.0,17.0,90,0.00,,,-99.99,,2013-02-13 14:21:00,
2013-02-13 08:31:00,29.0,27.0,-100.00,West,275,10.0,14.0,91,0.00,,,-99.99,,2013-02-13 14:31:00,
2013-02-13 08:42:00,29.0,27.0,-100.00,West,275,9.0,15.0,91,0.00,,,-99.99,,2013-02-13 14:42:00,
2013-02-13 08:52:00,29.0,27.0,-100.00,West,275,9.0,15.0,91,0.00,,,-99.99,,2013-02-13 14:52:00,
2013-02-13 09:01:00,29.0,27.0,-100.00,West,275,8.0,12.0,91,0.00,,,-99.99,,2013-02-13 15:01:00,
2013-02-13 09:11:00,29.0,27.0,-100.00,West,275,8.0,12.0,91,0.00,,,-99.99,,2013-02-13 15:11:00,
2013-02-13 09:21:00,29.0,27.0,-100.00,West,265,11.0,12.0,91,0.00,,,-99.99,,2013-02-13 15:21:00,
2013-02-13 09:32:00,30.0,27.0,-100.00,West,260,11.0,15.0,89,0.00,,,-99.99,,2013-02-13 15:32:00,
2013-02-13 09:42:00,29.0,26.0,-100.00,West,265,12.0,14.0,88,0.00,,,-99.99,,2013-02-13 15:42:00,
2013-02-13 09:52:00,29.0,26.0,-100.00,West,265,12.0,14.0,88,0.00,,,-99.99,,2013-02-13 15:52:00,
2013-02-13 10:01:00,30.0,27.0,-100.00,West,270,12.0,14.0,86,0.00,,,-99.99,,2013-02-13 16:01:00,
2013-02-13 10:11:00,30.0,27.0,-100.00,West,270,12.0,14.0,86,0.00,,,-99.99,,2013-02-13 16:11:00,
2013-02-13 10:21:00,31.0,26.0,-100.00,West,260,11.0,14.0,82,0.00,,,-99.99,,2013-02-13 16:21:00,
2013-02-13 10:31:00,31.0,26.0,-100.00,West,270,12.0,14.0,79,0.00,,,-99.99,,2013-02-13 16:31:00,
2013-02-13 10:42:00,31.0,26.0,-100.00,West,280,11.0,15.0,80,0.00,,,-99.99,,2013-02-13 16:42:00,
2013-02-13 10:52:00,31.0,26.0,-100.00,West,280,11.0,15.0,80,0.00,,,-99.99,,2013-02-13 16:52:00,
2013-02-13 11:01:00,31.0,27.0,-100.00,West,280,13.0,19.0,82,0.00,,,-99.99,,2013-02-13 17:01:00,
2013-02-13 11:11:00,31.0,27.0,-100.00,West,280,13.0,19.0,82,0.00,,,-99.99,,2013-02-13 17:11:00,
2013-02-13 11:21:00,31.0,27.0,-100.00,WNW,285,14.0,17.0,81,0.00,,,-99.99,,2013-02-13 17:21:00,
2013-02-13 11:32:00,32.0,27.0,-100.00,WNW,290,17.0,22.0,79,0.00,,,-99.99,,2013-02-13 17:32:00,
2013-02-13 11:42:00,32.0,26.0,-100.00,WNW,295,18.0,23.0,79,0.00,,,-99.99,,2013-02-13 17:42:00,
2013-02-13 11:52:00,32.0,26.0,-100.00,WNW,295,18.0,23.0,79,0.00,,,-99.99,,2013-02-13 17:52:00,
2013-02-13 12:01:00,31.0,26.0,-100.00,NW,310,16.0,24.0,78,0.00,,,-99.99,,2013-02-13 18:01:00,
2013-02-13 12:11:00,31.0,26.0,-100.00,NW,310,16.0,24.0,78,0.00,,,-99.99,,2013-02-13 18:11:00,
2013-02-13 12:23:00,31.0,26.0,-100.00,WNW,300,16.0,22.0,79,0.00,,,-99.99,,2013-02-13 18:23:00,
2013-02-13 12:32:00,31.0,25.0,-100.00,NW,310,16.0,24.0,79,0.00,,,-99.99,,2013-02-13 18:32:00,
2013-02-13 12:42:00,30.0,26.0,-100.00,NW,315,15.0,21.0,82,0.00,,,-99.99,,2013-02-13 18:42:00,
2013-02-13 12:52:00,30.0,26.0,-100.00,NW,315,15.0,21.0,82,0.00,,,-99.99,,2013-02-13 18:52:00,
2013-02-13 13:01:00,30.0,27.0,-100.00,NW,305,16.0,19.0,86,0.00,,,-99.99,,2013-02-13 19:01:00,
2013-02-13 13:11:00,30.0,27.0,-100.00,NW,305,16.0,19.0,86,0.00,,,-99.99,,2013-02-13 19:11:00,
2013-02-13 13:21:00,30.0,26.0,-100.00,NW,315,19.0,23.0,87,0.00,,,-99.99,,2013-02-13 19:21:00,
2013-02-13 13:31:00,30.0,27.0,-100.00,NW,315,14.0,21.0,88,0.00,,,-99.99,,2013-02-13 19:31:00,
2013-02-13 13:42:00,30.0,27.0,-100.00,NW,310,14.0,20.0,88,0.00,,,-99.99,,2013-02-13 19:42:00,
2013-02-13 13:52:00,30.0,27.0,-100.00,NW,310,14.0,20.0,88,0.00,,,-99.99,,2013-02-13 19:52:00,
2013-02-13 14:02:00,30.0,27.0,-100.00,NW,315,14.0,19.0,88,0.00,,,-99.99,,2013-02-13 20:02:00,
2013-02-13 14:11:00,30.0,27.0,-100.00,NW,315,14.0,19.0,88,0.00,,,-99.99,,2013-02-13 20:11:00,
2013-02-13 14:21:00,30.0,27.0,-100.00,NW,310,14.0,19.0,88,0.00,,,-99.99,,2013-02-13 20:21:00,
2013-02-13 14:31:00,30.0,27.0,-100.00,WNW,300,13.0,19.0,88,0.00,,,-99.99,,2013-02-13 20:31:00,
2013-02-13 14:42:00,30.0,27.0,-100.00,WNW,295,16.0,19.0,89,0.00,,,-99.99,,2013-02-13 20:42:00,
2013-02-13 14:52:00,30.0,27.0,-100.00,WNW,295,16.0,19.0,89,0.00,,,-99.99,,2013-02-13 20:52:00,
2013-02-13 15:01:00,30.0,27.0,-100.00,WNW,285,13.0,17.0,89,7.88,,,-99.99,,2013-02-13 21:01:00,
2013-02-13 15:11:00,30.0,27.0,-100.00,WNW,285,13.0,17.0,89,7.88,,,-99.99,,2013-02-13 21:11:00,
2013-02-13 15:21:00,30.0,27.0,-100.00,WNW,295,13.0,17.0,89,6.83,,,-99.99,,2013-02-13 21:21:00,
2013-02-13 15:31:00,30.0,27.0,-100.00,WNW,285,11.0,14.0,89,13.00,,,-99.99,,2013-02-13 21:31:00,
2013-02-13 15:42:00,30.0,27.0,-100.00,WNW,285,15.0,17.0,89,12.80,,,-99.99,,2013-02-13 21:42:00,
2013-02-13 15:52:00,30.0,27.0,-100.00,WNW,285,15.0,17.0,89,12.80,,,-99.99,,2013-02-13 21:52:00,
2013-02-13 16:02:00,29.0,27.0,-100.00,WNW,295,12.0,19.0,88,0.00,,,-99.99,,2013-02-13 22:02:00,
2013-02-13 16:11:00,29.0,27.0,-100.00,WNW,295,12.0,19.0,88,0.00,,,-99.99,,2013-02-13 22:11:00,
2013-02-13 16:21:00,29.0,26.0,-100.00,WNW,290,11.0,16.0,88,13.10,,,-99.99,,2013-02-13 22:21:00,
2013-02-13 16:31:00,30.0,27.0,-100.00,West,280,10.0,14.0,88,12.40,,,-99.99,,2013-02-13 22:31:00,
2013-02-13 16:42:00,30.0,27.0,-100.00,West,280,10.0,12.0,88,13.29,,,-99.99,,2013-02-13 22:42:00,
2013-02-13 16:52:00,30.0,27.0,-100.00,West,280,10.0,12.0,88,13.29,,,-99.99,,2013-02-13 22:52:00,
2013-02-13 17:01:00,30.0,28.0,-100.00,WNW,290,12.0,17.0,90,12.50,,,-99.99,,2013-02-13 23:01:00,
2013-02-13 17:11:00,30.0,28.0,-100.00,WNW,290,12.0,17.0,90,12.50,,,-99.99,,2013-02-13 23:11:00,
2013-02-13 17:21:00,30.0,28.0,-100.00,WNW,290,12.0,17.0,90,16.60,,,-99.99,,2013-02-13 23:21:00,
2013-02-13 17:32:00,30.0,28.0,-100.00,WNW,295,12.0,15.0,90,14.90,,,-99.99,,2013-02-13 23:32:00,
2013-02-13 17:42:00,30.0,28.0,-100.00,West,280,10.0,15.0,90,14.70,,,-99.99,,2013-02-13 23:42:00,
2013-02-13 17:52:00,30.0,28.0,-100.00,West,280,10.0,15.0,90,14.70,,,-99.99,,2013-02-13 23:52:00,
2013-02-13 18:02:00,31.0,29.0,-100.00,WNW,290,12.0,16.0,92,1.13,,,-99.99,,2013-02-14 00:02:00,
2013-02-13 18:11:00,31.0,29.0,-100.00,WNW,290,12.0,16.0,92,1.13,,,-99.99,,2013-02-14 00:11:00,
2013-02-13 18:21:00,31.0,29.0,-100.00,WNW,290,12.0,17.0,93,10.60,,,-99.99,,2013-02-14 00:21:00,
2013-02-13 18:32:00,31.0,29.0,-100.00,West,280,12.0,16.0,93,16.20,,,-99.99,,2013-02-14 00:32:00,
2013-02-13 18:42:00,31.0,29.0,-100.00,WNW,290,11.0,15.0,93,1.01,,,-99.99,,2013-02-14 00:42:00,
2013-02-13 18:52:00,31.0,29.0,-100.00,WNW,290,11.0,15.0,93,1.01,,,-99.99,,2013-02-14 00:52:00,
2013-02-13 19:01:00,31.0,30.0,-100.00,WNW,285,15.0,19.0,94,14.30,,,-99.99,,2013-02-14 01:01:00,
2013-02-13 19:11:00,31.0,30.0,-100.00,WNW,285,15.0,19.0,94,14.30,,,-99.99,,2013-02-14 01:11:00,
2013-02-13 19:21:00,32.0,30.0,-100.00,WNW,295,19.0,24.0,91,0.00,,,-99.99,,2013-02-14 01:21:00,
2013-02-13 19:31:00,33.0,30.0,-100.00,WNW,300,13.0,23.0,89,0.00,,,-99.99,,2013-02-14 01:31:00,
2013-02-13 19:41:00,33.0,30.0,-100.00,NW,305,13.0,19.0,89,0.00,,,-99.99,,2013-02-14 01:41:00,
2013-02-13 19:52:00,33.0,30.0,-100.00,NW,305,13.0,19.0,89,0.00,,,-99.99,,2013-02-14 01:52:00,
2013-02-13 20:01:00,33.0,30.0,-100.00,WNW,290,17.0,26.0,88,0.00,,,-99.99,,2013-02-14 02:01:00,
2013-02-13 20:11:00,33.0,30.0,-100.00,WNW,290,17.0,26.0,88,0.00,,,-99.99,,2013-02-14 02:11:00,
2013-02-13 20:21:00,33.0,29.0,-100.00,WNW,295,15.0,21.0,88,0.00,,,-99.99,,2013-02-14 02:21:00,
2013-02-13 20:31:00,33.0,29.0,-100.00,WNW,290,19.0,26.0,84,0.00,,,-99.99,,2013-02-14 02:31:00,
2013-02-13 20:41:00,33.0,29.0,-100.00,WNW,290,19.0,26.0,84,0.00,,,-99.99,,2013-02-14 02:41:00,
2013-02-13 20:52:00,33.0,29.0,-100.00,WNW,290,19.0,26.0,84,0.00,,,-99.99,,2013-02-14 02:52:00,
2013-02-13 21:02:00,32.0,27.0,-100.00,West,280,14.0,19.0,80,15.60,,,-99.99,,2013-02-14 03:02:00,
2013-02-13 21:11:00,32.0,27.0,-100.00,West,280,14.0,19.0,80,15.60,,,-99.99,,2013-02-14 03:11:00,
2013-02-13 21:22:00,32.0,27.0,-100.00,West,280,13.0,18.0,82,0.00,,,-99.99,,2013-02-14 03:22:00,
2013-02-13 21:31:00,30.0,24.0,-100.00,WNW,285,22.0,29.0,78,14.10,,,-99.99,,2013-02-14 03:31:00,
2013-02-13 21:42:00,29.0,23.0,-100.00,WNW,300,24.0,30.0,79,0.00,,,-99.99,,2013-02-14 03:42:00,
2013-02-13 21:52:00,29.0,23.0,-100.00,WNW,300,24.0,30.0,79,0.00,,,-99.99,,2013-02-14 03:52:00,
2013-02-13 22:01:00,28.0,22.0,-100.00,WNW,285,16.0,22.0,77,0.00,,,-99.99,,2013-02-14 04:01:00,
2013-02-13 22:12:00,28.0,22.0,-100.00,WNW,285,16.0,22.0,77,0.00,,,-99.99,,2013-02-14 04:12:00,
2013-02-13 22:21:00,27.0,21.0,-100.00,West,275,17.0,21.0,77,0.00,,,-99.99,,2013-02-14 04:21:00,
2013-02-13 22:31:00,28.0,21.0,-100.00,West,275,18.0,26.0,76,0.00,,,-99.99,,2013-02-14 04:31:00,
2013-02-13 22:41:00,27.0,21.0,-100.00,West,280,17.0,23.0,76,0.00,,,-99.99,,2013-02-14 04:41:00,
2013-02-13 22:52:00,27.0,21.0,-100.00,West,280,17.0,23.0,76,0.00,,,-99.99,,2013-02-14 04:52:00,
2013-02-13 23:02:00,28.0,22.0,-100.00,West,280,19.0,26.0,75,0.00,,,-99.99,,2013-02-14 05:02:00,
2013-02-13 23:11:00,28.0,22.0,-100.00,West,280,19.0,26.0,75,0.00,,,-99.99,,2013-02-14 05:11:00,
2013-02-13 23:21:00,28.0,22.0,-100.00,West,275,17.0,22.0,76,0.00,,,-99.99,,2013-02-14 05:21:00,
2013-02-13 23:31:00,28.0,22.0,-100.00,WNW,285,18.0,26.0,80,0.00,,,-99.99,,2013-02-14 05:31:00,
2013-02-13 23:42:00,28.0,23.0,-100.00,West,280,19.0,26.0,80,0.00,,,-99.99,,2013-02-14 05:42:00,
2013-02-13 23:52:00,28.0,23.0,-100.00,West,280,19.0,26.0,80,0.00,,,-99.99,,2013-02-14 05:52:00,